Home > Weather > Brockton > Past weeks

Flag for U.S.A. Weather for the Past 2 Weeks in Brockton, Massachusetts, U.S.A.

Now
27 °F

Chilly.


Feels Like: 20 °F
Forecast: 16 / 36 °F
Wind: 6 mph from South

Location: East Milton

Current Time: Feb 10, 2016 at 10:42:24 AM

Latest Report: Feb 10, 2016 at 9:54 AM


Visibility: N/A

Pressure: 29.62 "Hg

Humidity: 89%

Dew point: 24 °F

Location of BrocktonLocation

Historic Weather in Brockton — Graph

°F

Brockton Temperature Yesterday

Maximum temperature yesterday: 26 °F (at 3:54 PM)
Minimum temperature yesterday: 17 °F (at 12:54 AM)
Average temperature yesterday: 21 °F

High & Low Weather Summary for the Past Weeks

 TemperatureHumidityPressure
High63 °F (Feb 1, 12:54 PM)100% (Jan 29, 3:54 AM)30.41 "Hg (Jan 29, 3:54 AM)
Low15 °F (Feb 8, 11:54 AM)33% (Feb 2, 1:54 PM)29.38 "Hg (Jan 29, 12:54 PM)
Average35 °F74%29.95 "Hg
* Reported Jan 26 8:54 AM — Feb 10 8:54 AM, Brockton, Weather by CustomWeather, © 2016

Note: Actual official high and low records may vary slightly from our data, if they occured in-between our weather recording intervals... More about our weather records

Advertising

Brockton Weather History for the Previous 24 Hours

 ConditionsComfort  
Time TempWeatherWind HumidityBarometerVisibility
8:54 AM
Wed, Feb 10
25 °FChilly.7 mph92%29.63 "HgN/A
7:54 AM23 °FCold.9 mph88%29.63 "HgN/A
6:54 AM24 °FCold.10 mph75%29.63 "HgN/A
5:54 AM23 °FCold.10 mph81%29.62 "HgN/A
4:54 AM22 °FCold.9 mph82%29.62 "HgN/A
3:54 AM22 °FCold.7 mph78%29.61 "HgN/A
2:54 AM22 °FCold.6 mph78%29.61 "HgN/A
1:54 AM23 °FCold.6 mph74%29.61 "HgN/A
12:54 AM22 °FCold.3 mph75%29.61 "HgN/A
11:54 PM
Tue, Feb 9
23 °FCold.6 mph74%29.62 "HgN/A
10:54 PM23 °FCold.5 mph74%29.62 "HgN/A
9:54 PM23 °FCold.6 mph78%29.64 "HgN/A
8:54 PM24 °FCold.No wind71%29.64 "HgN/A
7:54 PM23 °FCold.5 mph78%29.62 "HgN/A
6:54 PM24 °FCold.6 mph81%29.64 "HgN/A
5:54 PM25 °FChilly.No wind78%29.63 "HgN/A
4:54 PM25 °FChilly.No wind78%29.61 "HgN/A
3:54 PM26 °FChilly.No wind74%29.61 "HgN/A
2:54 PM25 °FChilly.5 mph78%29.60 "HgN/A
1:54 PM25 °FChilly.5 mph78%29.60 "HgN/A
12:54 PM24 °FCold.8 mph84%29.62 "HgN/A
11:54 AM23 °FCold.6 mph81%29.65 "HgN/A
10:54 AM22 °FCold.7 mph82%29.67 "HgN/A
Weather by CustomWeather, © 2016

See weather overviewHow to use our weather pages